Omaha, NE

5:33 PM CDT on July 29, 2016 (GMT -0500)
Eppley Airfield

Weather History for KOMA - May, 2014

Change the Weather History Date:

Sunday, May 11, 2014

  Actual Average Record
Temperature  
Mean Temperature 63 °F 61 °F  
Max Temperature 76 °F 72 °F 93 °F (1958)
Min Temperature 50 °F 49 °F 31 °F (1946)
Degree Days  
Heating Degree Days 2 6  
Month to date heating degree days 52 76  
Since 1 July heating degree days 6439 6078  
Cooling Degree Days 0 1  
Month to date cooling degree days 23 11  
Year to date cooling degree days 38 27  
Growing Degree Days 12 (Base 50)    
Moisture  
Dew Point 57 °F    
Average Humidity 76    
Maximum Humidity 93    
Minimum Humidity 59    
Precipitation  
Precipitation 2.21 in 0.15 in 2.21 in (2014)
Month to date precipitation 2.40 1.56  
Year to date precipitation 6.09 8.08  
Snow  
Snow 0.00 in 0.00 in - ()
Month to date snowfall 0.0 0.1  
Since 1 July snowfall 17.8 26.5  
Snow Depth 0.00 in    
Sea Level Pressure  
Sea Level Pressure 29.70 in    
Wind  
Wind Speed 13 mph (NNE)    
Max Wind Speed 62 mph    
Max Gust Speed 82 mph    
Visibility 7 miles    
Events Rain , Thunderstorm    
T = Trace of Precipitation, MM = Missing Value Source: NWS Daily Summary

Daily Weather History Graph

Daily Weather History Graph

Search for Another Location

Airport or City:

Trip Planner

Search our weather history database for the weather conditions in past years. The results will help you decide how hot, cold, wet, or windy it might be!

Date:

Astronomy

May. 11, 2014 Rise Set
Actual Time 6:09 AM CDT 8:31 PM CDT
Civil Twilight 5:38 AM CDT 9:02 PM CDT
Nautical Twilight 4:59 AM CDT 9:41 PM CDT
Astronomical Twilight 4:17 AM CDT 10:24 PM CDT
Moon 5:26 PM CDT (5/11) 4:16 AM CDT (5/11)
Length of Visible Light 15h 24m
Length of Day
14h 22m
Waxing Gibbous, 89% of the Moon is Illuminated
May 11
Waxing Gibbous
May 14
Full
May 21
Last Quarter
May 28
New
Jun 5
First Quarter

Hourly Weather History & Observations

Time (CDT) Temp. Dew Point Humidity Pressure Visibility Wind Dir Wind Speed Gust Speed Precip Events Conditions
12:52 AM 53.6 °F 44.6 °F 72% 29.78 in 10.0 mi NNW 6.9 mph - N/A   Partly Cloudy
1:52 AM 55.9 °F 43.0 °F 62% 29.74 in 10.0 mi North 10.4 mph - N/A   Partly Cloudy
2:52 AM 55.9 °F 41.0 °F 57% 29.74 in 10.0 mi North 9.2 mph - N/A   Scattered Clouds
3:52 AM 55.9 °F 46.0 °F 69% 29.75 in 10.0 mi North 5.8 mph - N/A   Mostly Cloudy
4:52 AM 55.9 °F 44.1 °F 64% 29.72 in 10.0 mi North 8.1 mph - N/A   Overcast
5:52 AM 57.0 °F 46.0 °F 67% 29.74 in 10.0 mi Calm Calm - 0.00 in Rain Light Rain
6:11 AM 57.0 °F 46.9 °F 69% 29.79 in 9.0 mi West 3.5 mph - 0.01 in Rain , Thunderstorm Light Thunderstorms and Rain
6:30 AM 55.9 °F 50.0 °F 80% 29.81 in 2.5 mi West 4.6 mph - 0.07 in Rain , Thunderstorm Light Thunderstorms and Rain
6:50 AM 53.6 °F 51.8 °F 94% 29.80 in 3.0 mi NE 10.4 mph - 0.19 in Rain , Thunderstorm Light Thunderstorms and Rain
6:52 AM 54.0 °F 51.1 °F 90% 29.78 in 4.0 mi NE 9.2 mph - 0.20 in Rain , Thunderstorm Light Thunderstorms and Rain
7:15 AM 55.9 °F 53.1 °F 90% 29.80 in 10.0 mi NE 8.1 mph - 0.02 in Rain Light Rain
7:52 AM 57.0 °F 55.0 °F 93% 29.77 in 10.0 mi NNE 10.4 mph - 0.03 in   Mostly Cloudy
8:43 AM 59.0 °F 55.9 °F 90% 29.76 in 10.0 mi North 13.8 mph - 0.00 in Rain , Thunderstorm Light Thunderstorms and Rain
8:52 AM 57.9 °F 55.9 °F 93% 29.73 in 10.0 mi North 16.1 mph - 0.00 in Rain , Thunderstorm Light Thunderstorms and Rain
9:12 AM 57.9 °F 55.9 °F 93% 29.82 in 4.0 mi WNW 20.7 mph 26.5 mph 0.00 in Rain , Thunderstorm Thunderstorms and Rain
9:15 AM 57.9 °F 55.9 °F 93% 29.83 in 1.5 mi NW 20.7 mph - 0.02 in Rain , Thunderstorm Heavy Thunderstorms and Rain
9:38 AM 57.0 °F 55.0 °F 93% 29.80 in 2.0 mi North 19.6 mph 25.3 mph 0.50 in Rain , Thunderstorm Thunderstorms and Rain
9:52 AM 57.0 °F 55.0 °F 93% 29.77 in 6.0 mi NE 19.6 mph - 0.50 in Rain , Thunderstorm Light Thunderstorms and Rain
10:20 AM 60.1 °F 55.9 °F 86% 29.79 in 10.0 mi NE 13.8 mph - 0.01 in   Scattered Clouds
10:52 AM 62.1 °F 57.0 °F 84% 29.78 in 10.0 mi NE 10.4 mph - 0.01 in   Overcast
11:52 AM 64.0 °F 57.9 °F 80% 29.75 in 10.0 mi East 9.2 mph - N/A   Overcast
12:52 PM 66.2 °F 59.0 °F 78% 29.73 in 10.0 mi East 17.3 mph - N/A   Overcast
1:52 PM 68.0 °F 61.0 °F 78% 29.69 in 10.0 mi East 15.0 mph - N/A   Overcast
2:52 PM 71.1 °F 62.1 °F 73% 29.68 in 10.0 mi ESE 16.1 mph - N/A   Overcast
3:52 PM 73.4 °F 64.4 °F 73% 29.65 in 10.0 mi East 13.8 mph - N/A   Overcast
4:21 PM 75.0 °F 66.0 °F 73% 29.64 in 10.0 mi ESE 15.0 mph - N/A   Mostly Cloudy
4:52 PM 73.9 °F 66.0 °F 76% 29.60 in 10.0 mi East 8.1 mph - N/A   Mostly Cloudy
5:52 PM 73.0 °F 66.9 °F 81% 29.57 in 10.0 mi ENE 16.1 mph - N/A   Overcast
6:09 PM 73.9 °F 66.9 °F 79% 29.57 in 10.0 mi East 16.1 mph - N/A Thunderstorm Thunderstorm
6:52 PM 75.0 °F 66.0 °F 73% 29.53 in 10.0 mi East 12.7 mph - N/A Thunderstorm Thunderstorm
7:43 PM 71.1 °F 63.0 °F 75% 29.58 in 10.0 mi WSW 28.8 mph 41.4 mph 0.00 in Rain , Thunderstorm Light Thunderstorms and Rain
7:48 PM 68.0 °F 62.6 °F 83% 29.57 in 1.5 mi WSW 35.7 mph 65.6 mph 0.00 in Rain , Thunderstorm Thunderstorms and Rain
7:50 PM 66.2 °F 62.6 °F 88% 29.53 in 0.2 mi West 59.8 mph 71.3 mph N/A Rain , Thunderstorm Heavy Thunderstorms and Rain
7:52 PM 64.0 °F 62.1 °F 93% 29.55 in 0.2 mi West 62.1 mph 81.7 mph 0.02 in Rain , Thunderstorm Heavy Thunderstorms and Rain
7:59 PM 63.0 °F 61.0 °F 93% 29.56 in 0.2 mi West 35.7 mph 81.7 mph 0.18 in Rain , Thunderstorm Heavy Thunderstorms and Rain
8:03 PM 63.0 °F 61.0 °F 93% 29.58 in 0.5 mi WNW 28.8 mph 59.8 mph 0.46 in Rain , Thunderstorm Heavy Thunderstorms and Rain
8:06 PM 64.0 °F 62.1 °F 93% 29.58 in 5.0 mi West 21.9 mph 46.0 mph 0.49 in Rain , Thunderstorm Heavy Thunderstorms and Rain
8:32 PM 66.0 °F 64.0 °F 93% 29.64 in 4.0 mi South 5.8 mph - 0.55 in Rain , Thunderstorm Light Thunderstorms and Rain
8:52 PM 66.0 °F 63.0 °F 90% 29.66 in 7.0 mi SW 8.1 mph - 0.66 in Rain , Thunderstorm Light Thunderstorms and Rain
9:52 PM 66.0 °F 60.1 °F 81% 29.62 in 7.0 mi North 9.2 mph - 0.11 in Rain , Thunderstorm Light Thunderstorms and Rain
10:26 PM 64.0 °F 62.1 °F 93% 29.71 in 2.5 mi South 13.8 mph - 0.11 in Rain , Thunderstorm Thunderstorms and Rain
10:37 PM 64.0 °F 62.1 °F 93% 29.74 in 2.0 mi SSE 21.9 mph 28.8 mph 0.26 in Rain , Thunderstorm Thunderstorms and Rain
10:52 PM 64.0 °F 61.0 °F 90% 29.70 in 5.0 mi ESE 13.8 mph 24.2 mph 0.47 in Rain , Thunderstorm Light Thunderstorms and Rain
11:23 PM 64.0 °F 61.0 °F 90% 29.69 in 3.0 mi Calm Calm - 0.09 in Rain Light Rain
11:52 PM 63.0 °F 61.0 °F 93% 29.66 in 4.0 mi NW 4.6 mph - 0.21 in Rain Light Rain